Wind_Speed
45 45 46 47 47 48 48 47 47 48 49 49 50 50 50 50 51 52 53 54 55 56 57 57 57 56 57 57 58 58 58 58 58 57 56 56 56 56 55 55 54 54 54
44 44 45 46 46 47 48 48 47 47 48 48 49 49 50 50 51 51 52 53 54 55 56 56 57 57 57 57 58 58 59 59 59 60 59 57 57 56 56 56 55 55 54
44 44 44 44 44 45 46 47 47 47 47 46 47 47 48 49 50 51 52 52 53 54 54 54 55 56 57 57 58 58 59 60 60 60 59 59 58 56 56 55 56 55 54
43 43 43 43 43 43 44 45 46 45 45 45 45 45 46 48 48 49 50 50 51 52 52 52 53 54 55 56 57 57 59 60 61 60 60 59 59 58 57 56 56 56 54
42 42 42 42 42 42 43 44 44 44 44 44 44 44 45 46 47 47 48 49 50 50 51 51 51 52 53 54 55 56 57 58 59 60 59 59 59 59 58 56 57 56 56
42 41 41 40 41 41 42 42 42 43 44 44 44 44 44 45 46 47 47 47 48 49 50 51 51 51 52 52 53 54 55 56 57 58 58 58 58 58 57 57 56 56 56
41 40 40 39 40 40 40 40 41 42 42 43 43 44 44 44 45 45 46 47 48 49 50 51 51 51 51 51 52 53 54 55 55 56 57 56 55 56 56 56 56 57 57
39 39 38 39 39 39 39 39 40 40 41 41 42 43 44 44 44 44 44 45 46 47 47 48 49 50 50 50 51 52 53 53 53 54 54 53 53 53 54 55 56 57 57
37 37 38 38 39 38 39 39 39 39 39 40 40 41 42 43 43 43 43 42 43 43 44 45 47 48 49 49 50 51 51 52 52 53 53 53 52 52 53 54 55 56 56
36 36 37 37 37 38 38 38 37 37 37 38 38 38 40 40 41 41 42 41 40 41 42 43 44 46 47 49 49 48 48 48 49 49 51 52 52 53 53 53 54 55 55
33 34 34 35 34 34 34 34 34 35 35 35 35 35 36 37 39 40 39 39 39 39 39 40 41 42 43 45 46 46 45 45 46 47 49 50 52 53 53 53 53 53 53
30 31 32 32 31 31 32 32 32 32 33 33 33 33 34 35 35 35 36 37 38 37 37 37 38 38 39 40 41 42 43 44 45 46 47 48 50 52 52 53 53 52 52
29 29 29 29 29 29 30 31 31 31 31 31 32 32 32 32 32 33 33 35 35 35 35 35 35 36 37 38 39 40 41 41 42 43 44 45 47 49 50 51 52 52 53
28 28 28 28 28 28 29 30 30 30 30 30 30 30 30 30 31 31 32 32 32 32 32 32 33 33 34 35 36 37 39 40 40 41 41 42 44 46 49 50 50 51 51
28 28 28 28 28 28 28 28 29 29 29 30 29 28 28 28 29 30 30 31 31 31 32 32 32 32 33 33 34 35 37 38 38 39 40 41 43 45 46 47 48 49 49
27 28 27 27 27 27 27 26 27 27 28 28 28 27 28 28 28 28 29 30 30 30 31 32 32 32 32 33 34 34 35 36 37 37 38 39 40 41 43 45 46 47 47
28 27 27 26 26 26 26 25 26 27 27 27 27 27 27 28 28 28 29 29 30 30 30 31 31 32 32 32 33 33 33 34 35 35 35 36 37 38 39 41 43 45 45
28 27 26 26 26 26 25 25 25 25 26 26 27 27 27 27 27 28 28 29 29 29 29 29 30 30 31 31 31 31 32 32 32 33 33 34 35 35 36 37 38 39 40
27 27 26 26 26 25 25 24 24 24 25 26 26 26 27 27 27 27 28 27 27 27 27 27 28 28 28 29 29 30 30 30 30 31 31 31 32 32 33 33 34 35 36
27 26 26 26 25 25 24 24 24 23 23 23 24 24 25 26 26 27 26 26 26 26 26 26 26 26 27 28 28 28 29 29 28 28 28 29 30 30 30 31 32 32 33
26 25 25 24 24 23 22 22 22 22 21 22 22 22 22 23 24 24 25 25 26 27 27 27 26 26 26 26 27 27 27 27 27 27 27 28 28 28 29 30 30 30 31
25 24 24 23 22 21 21 21 21 21 20 20 20 19 20 21 22 23 23 23 24 25 26 26 25 26 26 26 26 26 25 26 27 27 27 28 28 28 29 29 29 29 30
23 23 22 22 21 21 21 20 19 19 19 19 19 19 18 19 20 21 21 22 23 24 25 25 25 25 25 26 26 27 27 26 26 27 27 28 28 28 28 28 29 28 28
22 22 21 21 20 20 19 19 18 17 17 17 17 17 17 17 18 19 19 19 20 21 23 24 24 25 25 26 26 26 26 26 26 26 27 27 27 27 27 27 27 27 27
22 21 20 19 19 18 18 17 16 16 16 16 16 16 16 16 16 17 18 18 19 20 21 21 22 23 24 24 25 25 25 25 25 25 25 25 26 26 25 25 26 26 26
20 19 19 19 18 17 16 16 16 16 15 16 16 16 16 15 16 16 17 18 19 20 21 21 22 23 23 24 24 24 25 25 25 24 24 24 24 24 24 24 24 25 25
Wind_Direction
275 274 272 271 270 268 267 266 265 264 263 262 262 260 259 257 257 257 256 256 256 255 254 254 253 252 252 251 251 250 250 249 248 247 248 248 249 250 250 250 250 251 251
277 275 273 272 270 269 268 266 266 265 263 263 262 261 260 258 258 259 258 257 256 256 255 254 253 252 252 251 251 250 250 249 249 248 248 249 249 249 249 249 249 250 251
279 277 274 272 271 269 268 266 266 265 264 263 261 260 259 259 258 259 259 259 258 256 255 254 253 252 252 251 251 250 250 249 248 248 248 248 249 249 249 248 249 250 250
280 278 275 273 272 269 268 268 267 265 264 262 262 261 259 258 258 258 259 258 258 256 255 255 254 253 252 251 251 250 249 248 248 247 246 247 248 248 248 248 248 249 249
280 278 276 274 272 271 269 268 267 265 264 264 262 261 260 259 259 260 259 259 257 256 255 254 254 254 253 252 251 250 249 248 247 247 246 246 247 247 247 247 248 248 249
282 279 276 274 273 271 270 269 267 266 264 264 263 261 261 260 260 260 259 259 258 256 255 254 253 253 253 253 252 250 249 248 247 246 246 246 246 246 246 247 247 247 249
282 279 277 275 273 272 271 271 269 267 265 264 263 261 260 260 260 259 259 259 258 257 256 255 253 253 253 253 252 251 250 249 248 247 246 246 245 246 247 248 248 248 249
283 280 279 276 275 275 274 273 271 269 266 265 263 262 261 261 260 259 259 259 259 257 255 254 253 252 252 252 252 251 250 249 248 247 246 245 245 245 246 247 248 249 249
284 281 280 278 276 275 275 274 272 271 268 267 264 262 262 261 260 259 258 259 258 256 255 254 253 252 251 251 251 251 251 249 247 246 246 244 244 245 246 246 247 249 250
286 283 281 280 277 275 274 273 272 271 270 268 266 265 263 262 259 258 258 257 257 255 255 254 253 252 250 250 250 249 248 247 247 246 246 244 244 244 245 247 248 249 249
287 285 283 281 279 277 275 273 272 272 270 269 267 265 264 262 260 259 257 258 258 257 254 253 252 252 251 250 249 247 246 246 245 245 245 244 244 245 245 246 248 249 250
290 287 286 284 281 279 277 274 274 273 271 270 268 266 265 263 262 259 258 258 258 258 256 254 252 251 250 248 247 245 244 244 245 245 246 246 246 246 246 247 248 250 251
294 292 290 286 283 281 278 275 274 273 272 271 269 266 265 262 260 258 258 257 257 257 257 256 254 252 249 247 246 245 244 244 246 246 246 247 248 247 247 248 249 250 252
295 294 293 289 284 281 279 276 274 273 272 271 270 266 263 261 260 259 259 258 258 257 256 255 254 251 249 248 247 245 245 245 246 246 246 248 249 249 249 249 250 251 252
296 295 293 290 287 284 281 278 275 273 272 271 269 265 261 259 259 258 257 258 257 256 255 254 253 251 249 248 248 247 246 246 247 248 248 249 250 250 250 249 249 250 250
296 295 294 292 289 285 283 281 277 273 270 270 267 264 261 259 257 257 257 257 256 256 254 253 253 251 250 249 249 248 247 247 248 248 248 249 250 250 250 250 249 249 249
297 295 294 293 291 289 285 281 278 275 272 269 267 265 263 260 259 258 258 257 256 256 256 254 253 251 248 248 247 247 248 248 249 250 250 249 250 251 252 251 250 250 250
299 297 295 294 293 290 287 283 279 275 272 270 268 266 263 261 259 258 258 258 256 255 254 252 250 249 247 245 245 246 247 248 249 250 250 250 251 253 253 252 252 251 250
299 297 296 295 293 291 289 286 282 277 272 269 268 266 264 261 259 258 258 257 255 252 251 250 249 248 246 245 244 245 247 248 250 251 250 250 251 252 253 253 252 251 250
301 299 298 297 296 293 289 287 284 281 277 272 268 267 265 263 259 258 257 256 254 251 250 248 246 245 245 245 245 246 248 249 250 250 250 250 250 252 252 252 252 251 251
301 301 301 300 298 296 293 289 286 284 279 275 271 269 267 263 260 258 256 255 253 249 247 245 245 245 245 244 245 245 246 248 249 250 250 250 250 251 252 252 252 253 253
301 300 300 301 299 297 296 294 289 285 282 278 274 271 269 265 261 258 256 254 250 245 242 243 245 246 247 246 244 244 246 249 250 251 250 251 251 252 253 253 254 254 253
301 300 300 300 299 297 296 295 292 288 284 280 276 274 272 268 262 257 255 252 248 244 243 243 244 244 244 244 244 245 246 249 250 251 251 252 253 253 254 254 254 254 253
300 300 299 298 298 298 296 294 292 290 286 283 278 275 274 270 265 260 256 252 249 246 243 241 240 240 241 241 243 244 245 248 249 249 250 250 251 252 253 254 254 254 254
300 300 299 297 297 297 295 294 292 290 287 283 279 277 274 270 266 262 258 254 251 247 243 241 239 239 240 241 242 243 245 247 248 248 248 249 250 251 253 253 252 252 254
299 299 299 297 297 296 294 292 291 290 288 285 281 278 275 270 266 261 258 254 250 247 244 242 241 241 242 243 244 245 246 247 248 248 248 249 250 251 251 251 251 252 254
Height
5569 5568 5567 5566 5565 5564 5564 5564 5564 5564 5565 5566 5567 5568 5570 5571 5572 5574 5576 5578 5580 5582 5585 5588 5592 5594 5597 5601 5604 5608 5612 5617 5623 5629 5632 5636 5640 5644 5647 5651 5654 5657 5661
5556 5554 5553 5552 5550 5550 5549 5549 5549 5549 5550 5550 5552 5553 5554 5556 5557 5558 5560 5562 5564 5567 5569 5572 5575 5578 5581 5584 5588 5592 5596 5600 5606 5612 5617 5620 5625 5629 5633 5636 5640 5643 5647
5543 5541 5539 5538 5536 5536 5535 5535 5535 5535 5536 5536 5537 5538 5539 5541 5542 5543 5545 5547 5549 5551 5553 5556 5559 5562 5565 5568 5571 5575 5580 5584 5589 5595 5601 5605 5609 5613 5617 5621 5625 5629 5632
5530 5527 5526 5524 5523 5522 5522 5521 5521 5521 5522 5522 5523 5524 5525 5526 5527 5529 5530 5532 5533 5535 5538 5540 5543 5546 5549 5552 5555 5559 5563 5567 5572 5577 5584 5588 5593 5597 5601 5606 5610 5614 5618
5517 5515 5513 5511 5510 5509 5508 5508 5507 5507 5508 5508 5509 5510 5511 5512 5513 5514 5515 5517 5518 5521 5523 5525 5528 5531 5534 5536 5540 5543 5547 5551 5556 5561 5567 5572 5577 5581 5586 5590 5594 5599 5603
5504 5502 5500 5499 5498 5496 5495 5494 5494 5494 5494 5495 5495 5496 5497 5498 5499 5499 5500 5502 5504 5506 5508 5511 5513 5516 5518 5521 5524 5528 5531 5535 5540 5545 5550 5556 5561 5566 5570 5574 5578 5583 5589
5492 5489 5488 5486 5485 5484 5483 5482 5481 5481 5481 5481 5481 5482 5483 5484 5484 5485 5486 5487 5489 5491 5493 5496 5498 5501 5503 5506 5510 5513 5516 5520 5525 5530 5535 5540 5546 5552 5556 5560 5563 5566 5572
5479 5477 5475 5474 5473 5471 5470 5469 5468 5468 5468 5468 5468 5468 5469 5470 5470 5471 5472 5473 5474 5476 5478 5480 5483 5487 5489 5492 5495 5498 5502 5506 5510 5515 5521 5527 5530 5535 5539 5544 5547 5551 5556
5467 5465 5464 5462 5460 5459 5458 5457 5456 5455 5455 5455 5455 5455 5456 5457 5457 5457 5458 5459 5460 5462 5464 5466 5468 5472 5475 5478 5480 5484 5488 5492 5495 5500 5505 5510 5515 5520 5524 5528 5532 5536 5541
5456 5454 5452 5450 5449 5447 5446 5445 5444 5444 5443 5443 5443 5443 5443 5444 5444 5445 5445 5447 5449 5450 5451 5453 5455 5457 5460 5462 5465 5469 5474 5478 5482 5486 5490 5495 5500 5504 5509 5513 5517 5521 5526
5446 5444 5441 5440 5438 5436 5435 5434 5433 5432 5432 5432 5431 5431 5431 5432 5433 5433 5434 5435 5436 5437 5439 5440 5442 5444 5446 5449 5452 5456 5461 5465 5469 5473 5477 5481 5485 5490 5494 5498 5502 5507 5511
5436 5434 5432 5430 5428 5426 5425 5424 5423 5422 5422 5421 5421 5421 5421 5421 5421 5422 5423 5424 5425 5426 5427 5429 5430 5432 5434 5436 5439 5443 5448 5452 5456 5459 5463 5467 5471 5476 5480 5484 5488 5492 5496
5428 5425 5423 5421 5419 5417 5416 5415 5414 5412 5412 5411 5411 5411 5411 5411 5411 5412 5413 5414 5414 5415 5417 5418 5420 5421 5423 5425 5428 5432 5436 5439 5443 5447 5451 5455 5458 5462 5466 5470 5474 5477 5481
5420 5417 5414 5412 5410 5408 5407 5405 5404 5403 5402 5402 5401 5401 5401 5402 5402 5403 5404 5404 5405 5406 5407 5408 5409 5411 5413 5415 5418 5421 5424 5428 5432 5436 5439 5443 5446 5449 5452 5456 5459 5463 5467
5412 5409 5407 5404 5402 5400 5398 5396 5395 5394 5393 5393 5392 5392 5392 5393 5393 5393 5394 5395 5396 5397 5398 5399 5400 5402 5404 5406 5409 5411 5415 5418 5421 5425 5428 5431 5434 5436 5439 5442 5446 5449 5453
5405 5402 5399 5396 5394 5392 5390 5388 5386 5385 5384 5383 5383 5383 5383 5384 5384 5384 5385 5386 5387 5388 5389 5390 5391 5393 5395 5397 5400 5402 5405 5408 5411 5414 5417 5420 5422 5425 5427 5430 5433 5437 5440
5397 5394 5391 5388 5385 5383 5381 5380 5378 5377 5376 5375 5375 5375 5375 5375 5375 5376 5376 5377 5378 5379 5380 5381 5383 5384 5386 5388 5391 5394 5396 5399 5401 5404 5407 5409 5412 5414 5416 5419 5421 5424 5427
5389 5386 5383 5380 5378 5375 5373 5372 5370 5369 5368 5367 5367 5366 5366 5366 5367 5367 5368 5369 5370 5370 5371 5372 5374 5376 5378 5380 5382 5385 5388 5390 5392 5394 5396 5399 5401 5403 5406 5408 5410 5412 5415
5382 5379 5376 5373 5370 5368 5366 5364 5362 5361 5360 5359 5359 5358 5358 5358 5358 5359 5359 5360 5361 5362 5363 5364 5366 5367 5369 5372 5374 5377 5379 5381 5383 5385 5387 5389 5391 5393 5396 5397 5400 5402 5404
5375 5372 5369 5366 5363 5361 5358 5356 5355 5353 5352 5351 5351 5350 5350 5350 5350 5351 5351 5352 5353 5354 5355 5357 5358 5360 5362 5364 5366 5369 5371 5373 5375 5376 5378 5380 5382 5384 5386 5388 5390 5392 5395
5368 5365 5362 5359 5356 5354 5352 5350 5348 5346 5345 5344 5343 5342 5342 5342 5342 5342 5343 5344 5345 5346 5348 5349 5351 5353 5355 5357 5359 5361 5363 5365 5367 5368 5370 5372 5374 5376 5378 5380 5382 5383 5385
5361 5358 5355 5353 5350 5348 5345 5343 5341 5340 5338 5337 5337 5336 5335 5334 5334 5335 5335 5336 5337 5338 5340 5342 5343 5345 5347 5349 5352 5354 5356 5357 5359 5360 5362 5364 5366 5368 5369 5371 5373 5374 5376
5354 5351 5349 5346 5344 5342 5339 5337 5335 5333 5332 5331 5330 5329 5329 5328 5328 5328 5328 5329 5330 5331 5332 5334 5336 5338 5340 5342 5344 5346 5348 5350 5351 5353 5354 5356 5358 5360 5361 5363 5364 5366 5368
5347 5345 5342 5340 5338 5336 5333 5332 5330 5328 5327 5325 5324 5323 5323 5322 5322 5322 5322 5323 5323 5324 5325 5327 5329 5331 5333 5335 5337 5338 5340 5342 5343 5345 5347 5349 5350 5352 5353 5355 5356 5358 5359
5341 5338 5336 5334 5332 5330 5328 5326 5324 5323 5321 5320 5319 5318 5317 5316 5316 5316 5316 5316 5317 5318 5319 5320 5322 5324 5326 5328 5329 5331 5333 5334 5336 5337 5339 5340 5342 5344 5345 5347 5348 5350 5352
5334 5332 5330 5328 5326 5324 5323 5321 5319 5318 5317 5315 5314 5313 5312 5311 5310 5310 5310 5310 5311 5312 5313 5314 5315 5317 5319 5321 5322 5324 5325 5327 5328 5330 5331 5333 5335 5336 5338 5339 5341 5342 5344